sat.trackr.live / text

‹ back to catalog

STARLINK-35398

NORAD 66017 · 2025-232N

PAYLOAD ACTIVE UNKNOWN

§ Identity

Operator
Country
US
Launch date
2025-10-16
Launch site
AFETR
Launch vehicle
Mass (kg)
RCS (m²)

Purposes: comms

External: N2YO · Heavens-Above · Gunter

§ Orbital elements

Epoch: 2026-09-20T09:18:31.213728Z

Period
93.85 min
Inclination
53.1580°
Eccentricity
0.0001128
Mean motion
15.34419668 rev/d
Perigee alt
461.9 km
Apogee alt
463.4 km
Semi-major
6,840.8 km
B*
5.0420e-4
RAAN
276.0878°
Arg perigee
77.7066°
Mean anomaly
282.4063°
Rev number
5,329

§ Raw data

STARLINK-353981 66017U 25232N   26263.38786127  .00016707  00000+0  50420-3 0  99992 66017  53.1580 276.0878 0001128  77.7066 282.4063 15.34419668 53298

JSON: /api/v1/satellites/66017 · /tle

For live sub-satellite position, see the globe view (requires WebGL).

§ Visibility from observer

Set your observer location to see the next 7 days of passes ≥ 10°. The values pass through the URL so the page stays shareable.

No JS? Fill the form by hand. The geolocation button needs JavaScript.